Location: Lake Almanor
(40.2485°N, 121.1442°W)
Time: 13:01:25
(UTC-08:00)

N. Korean satellite - Pass Details

Date: 01 February 2020
Orbit: 456 x 505 km, 97.2° (Epoch: 26 February)

Event Time Altitude Azimuth Distance (km) Brightness Sun altitude
Rises 17:52:27 0° 200° (SSW) 2,460 10.7 -6.2°
Reaches altitude 10° 17:54:53 10° 218° (SW) 1,595 10.1 -6.6°
Maximum altitude 17:57:23 19° 266° (W) 1,157 9.8 -7.1°
Drops below altitude 10° 17:59:56 10° 313° (NW) 1,616 9.7 -7.5°
Sets 18:02:26 0° 332° (NNW) 2,504 10.4 -8.0°
